Seattle Boeing, WA

12:01 PM PDT on August 19, 2018 (GMT -0700)
Boeing Field-King County International

Weather History for KBFI - June, 2018

Change the Weather History Date:

Wednesday, June 13, 2018

  Actual Average Record
Temperature  
Mean Temperature 60 °F -  
Max Temperature 68 °F 69 °F 91 °F (2002)
Min Temperature 52 °F 51 °F 42 °F (1952)
Degree Days  
Heating Degree Days 5    
Growing Degree Days 10 (Base 50)    
Moisture  
Dew Point 48 °F    
Average Humidity 70    
Maximum Humidity 89    
Minimum Humidity 48    
Precipitation  
Precipitation 0.11 in - - ()
Sea Level Pressure  
Sea Level Pressure 29.92 in    
Wind  
Wind Speed 7 mph (SSE)    
Max Wind Speed 14 mph    
Max Gust Speed 23 mph    
Visibility 9 miles    
Events Rain    
Averages and records for this station are not official NWS values.
T = Trace of Precipitation, MM = Missing Value Source: NWS Daily Summary

Daily Weather History Graph

Daily Weather History Graph

Search for Another Location

Airport or City:

Astronomy

Jun. 13, 2018 Rise Set
Actual Time 5:11 AM PDT 9:07 PM PDT
Civil Twilight 4:30 AM PDT 9:47 PM PDT
Nautical Twilight 3:35 AM PDT 10:43 PM PDT
Astronomical Twilight 2:08 AM PDT 12:11 AM PDT
Moon 5:24 AM PDT (6/13) 9:04 PM PDT (6/13)
Length of Visible Light 17h 17m
Length of Day
15h 56m
Waning Crescent, 0% of the Moon is Illuminated
Jun 13
Waning Crescent
Jun 13
New
Jun 20
First Quarter
Jun 27
Full
Jul 6
Last Quarter

Hourly Weather History & Observations

Time (PDT) Temp. Dew Point Humidity Pressure Visibility Wind Dir Wind Speed Gust Speed Precip Events Conditions
12:53 AM 59.0 °F 46.0 °F 62% 29.89 in 10.0 mi SSE 5.8 mph - N/A   Mostly Cloudy
1:53 AM 59.0 °F 46.0 °F 62% 29.88 in 10.0 mi ESE 5.8 mph - N/A   Overcast
2:53 AM 57.0 °F 45.0 °F 64% 29.88 in 10.0 mi SSE 6.9 mph - 0.00 in   Overcast
3:53 AM 57.9 °F 41.0 °F 53% 29.88 in 10.0 mi SSE 5.8 mph - N/A   Overcast
4:53 AM 57.0 °F 44.1 °F 62% 29.88 in 10.0 mi SE 5.8 mph - 0.00 in   Overcast
5:53 AM 53.1 °F 48.0 °F 83% 29.89 in 3.0 mi SSE 4.6 mph - 0.04 in Rain Rain
6:10 AM 52.0 °F 48.9 °F 89% 29.89 in 2.0 mi South 5.8 mph - 0.03 in Rain Light Rain
6:18 AM 52.0 °F 48.9 °F 89% 29.88 in 3.0 mi ESE 4.6 mph - 0.04 in Rain Light Rain
6:34 AM 53.1 °F 48.9 °F 86% 29.88 in 8.0 mi East 5.8 mph - 0.04 in   Overcast
6:53 AM 54.0 °F 48.9 °F 83% 29.88 in 6.0 mi Calm Calm - 0.04 in Rain Light Rain
7:00 AM 54.0 °F 48.9 °F 83% 29.89 in 6.0 mi Calm Calm - 0.00 in Rain Light Rain
7:10 AM 54.0 °F 50.0 °F 86% 29.89 in 4.0 mi Calm Calm - 0.01 in Rain Light Rain
7:53 AM 54.0 °F 50.0 °F 86% 29.88 in 10.0 mi SSE 5.8 mph - 0.03 in   Overcast
8:53 AM 57.9 °F 48.9 °F 72% 29.89 in 10.0 mi South 12.7 mph - N/A   Overcast
9:53 AM 61.0 °F 51.1 °F 70% 29.90 in 10.0 mi SSW 10.4 mph 19.6 mph N/A   Mostly Cloudy
10:53 AM 61.0 °F 48.9 °F 64% 29.91 in 10.0 mi SSW 9.2 mph 20.7 mph N/A   Mostly Cloudy
11:53 AM 63.0 °F 50.0 °F 63% 29.91 in 10.0 mi South 12.7 mph - N/A   Mostly Cloudy
12:53 PM 62.1 °F 48.9 °F 62% 29.92 in 10.0 mi WSW 12.7 mph 21.9 mph N/A   Mostly Cloudy
1:53 PM 64.9 °F 48.0 °F 54% 29.93 in 10.0 mi SSW 10.4 mph 23.0 mph N/A   Scattered Clouds
2:53 PM 66.9 °F 48.0 °F 51% 29.93 in 10.0 mi South 12.7 mph 19.6 mph N/A   Scattered Clouds
3:07 PM 68.0 °F 48.0 °F 49% 29.94 in 10.0 mi SSW 13.8 mph 20.7 mph N/A   Mostly Cloudy
3:53 PM 66.0 °F 46.0 °F 48% 29.94 in 10.0 mi SW 12.7 mph 23.0 mph N/A   Mostly Cloudy
4:53 PM 61.0 °F 51.1 °F 70% 29.95 in 10.0 mi NE 9.2 mph - N/A   Overcast
5:53 PM 61.0 °F 52.0 °F 72% 29.96 in 10.0 mi NE 9.2 mph - 0.00 in   Overcast
6:53 PM 59.0 °F 50.0 °F 72% 29.97 in 10.0 mi Variable 6.9 mph - N/A   Overcast
7:53 PM 57.9 °F 50.0 °F 75% 29.98 in 10.0 mi NE 9.2 mph - N/A   Overcast
8:53 PM 57.9 °F 48.9 °F 72% 29.99 in 10.0 mi East 6.9 mph - N/A   Overcast
9:53 PM 57.9 °F 48.9 °F 72% 30.01 in 10.0 mi ENE 9.2 mph - N/A   Overcast
10:53 PM 57.0 °F 50.0 °F 77% 30.01 in 10.0 mi SE 8.1 mph - N/A   Overcast
11:53 PM 57.0 °F 46.9 °F 69% 30.02 in 10.0 mi South 8.1 mph - N/A   Mostly Cloudy